CDT,Max TemperatureF,Mean TemperatureF,Min TemperatureF,Max Dew PointF,MeanDew PointF,Min DewpointF,Max Humidity, Mean Humidity, Min Humidity, Max Sea Level PressureIn, Mean Sea Level PressureIn, Min Sea Level PressureIn, Max VisibilityMiles, Mean VisibilityMiles, Min VisibilityMiles, Max Wind SpeedMPH, Mean Wind SpeedMPH, Max Gust SpeedMPH,PrecipitationIn, CloudCover, Events, WindDirDegrees
2012-10-1,82,66,51,54,48,43,89,61,27,29.94,29.88,29.83,10,10,8,28,8,36,0.00,1,,354
2012-10-2,77,63,51,47,41,34,80,49,22,30.00,29.94,29.88,10,10,10,15,8,18,0.00,1,,340
2012-10-3,82,64,45,51,45,39,83,50,25,29.96,29.91,29.85,10,10,10,10,3,18,0.00,0,,180
2012-10-4,70,62,54,52,46,39,78,57,47,30.20,30.12,29.93,10,10,8,21,10,25,0.00,5,,28
2012-10-5,61,52,43,40,35,26,68,52,31,30.30,30.21,30.16,10,10,10,20,14,28,0.00,5,,45
2012-10-6,52,46,41,38,32,25,76,59,36,30.36,30.32,30.27,10,10,10,20,7,23,0.00,7,Rain,25
2012-10-7,57,42,30,33,28,22,88,56,27,30.36,30.29,30.20,10,10,10,10,4,,0.00,1,,316
2012-10-8,66,50,35,35,32,29,79,53,28,30.22,30.10,29.99,10,10,10,14,4,22,0.00,0,,190
2012-10-9,75,62,48,51,44,35,74,57,40,30.13,29.93,29.83,10,10,10,23,10,29,0.00,2,,147
2012-10-10,70,52,35,40,31,25,82,46,20,30.29,30.19,30.12,10,10,10,9,6,,0.00,0,,89
2012-10-11,80,68,55,65,53,35,76,58,42,30.10,30.04,29.96,10,10,9,17,6,28,0.00,6,,172
2012-10-12,78,70,64,67,64,61,94,81,66,30.16,30.08,30.01,10,10,8,23,9,29,0.00,5,Rain-Thunderstorm,120
2012-10-13,75,72,62,70,66,45,90,83,52,29.95,29.80,29.62,10,10,8,17,11,28,0.04,5,Rain-Thunderstorm,177
2012-10-14,79,66,52,48,43,37,70,48,24,30.06,29.93,29.67,10,10,10,18,10,28,0.00,0,,313
2012-10-15,89,66,44,49,42,38,85,49,18,30.05,29.95,29.83,10,10,10,13,3,22,0.00,0,,213
2012-10-16,84,73,62,55,49,46,63,46,26,29.81,29.66,29.48,10,10,10,22,8,30,0.00,0,,181
2012-10-17,75,64,53,61,46,21,94,59,17,29.81,29.55,29.36,10,10,7,22,12,32,0.00,1,,350
2012-10-18,70,56,43,24,17,10,47,23,11,29.92,29.86,29.81,10,8,4,28,11,45,0.00,4,,292
2012-10-19,71,56,42,27,19,15,49,25,13,29.92,29.87,29.81,10,10,7,21,9,29,0.00,0,,296
2012-10-20,86,63,42,55,39,25,68,40,25,29.83,29.74,29.65,10,10,10,12,5,,0.00,0,,146
2012-10-21,91,77,64,67,64,57,94,66,40,29.72,29.67,29.61,10,10,6,17,13,29,0.00,0,,163
2012-10-22,84,76,70,66,62,54,76,62,42,29.82,29.77,29.70,10,10,9,20,12,31,0.00,1,Rain,183
2012-10-23,87,77,68,66,65,61,90,70,48,29.82,29.76,29.68,10,10,10,16,10,29,0.00,1,,182
2012-10-24,84,76,69,66,64,62,87,73,53,29.83,29.75,29.66,10,10,10,20,12,32,0.00,2,,176
2012-10-25,73,56,39,62,43,31,87,68,54,30.28,29.96,29.60,10,10,10,24,15,37,0.00,5,,351
2012-10-26,51,39,28,31,25,20,74,59,35,30.49,30.40,30.30,10,10,10,22,15,29,0.00,2,,14
2012-10-27,53,37,21,27,22,19,89,58,30,30.43,30.33,30.23,10,10,10,12,4,16,0.00,0,,44
2012-10-28,59,42,25,28,24,20,81,53,26,30.34,30.28,30.22,10,10,10,8,2,,0.00,0,,119
2012-10-29,68,52,37,29,26,24,67,41,20,30.28,30.19,30.06,10,10,10,10,7,18,0.00,0,,163
2012-10-30,82,64,46,38,33,28,59,39,18,30.05,29.95,29.82,10,10,10,14,5,24,0.00,0,,188
2012-10-31,71,54,36,36,32,26,79,45,23,30.09,30.02,29.96,10,10,10,8,4,,0.00,0,,41